QPF
0.13 0.13 0.15 0.16 0.16 0.16 0.15 0.13 0.12 0.11 0.09 0.07 0.06 0.05 0.05 0.06 0.05 0.05 0.04 0.03 0.03 0.03 0.02 0.02 0.03 0.04 0.04 0.06 0.07 0.07 0.07 0.07 0.08 0.08 0.07 0.06 0.04 0.03
0.14 0.12 0.12 0.13 0.14 0.15 0.14 0.12 0.11 0.11 0.09 0.06 0.06 0.06 0.07 0.07 0.07 0.06 0.05 0.05 0.04 0.04 0.03 0.03 0.03 0.04 0.04 0.05 0.06 0.07 0.07 0.08 0.08 0.08 0.08 0.08 0.07 0.04
0.14 0.12 0.09 0.09 0.11 0.13 0.12 0.11 0.10 0.09 0.07 0.05 0.05 0.06 0.06 0.07 0.08 0.07 0.07 0.06 0.05 0.05 0.04 0.04 0.03 0.03 0.04 0.04 0.05 0.06 0.07 0.07 0.08 0.08 0.08 0.07 0.07 0.06
0.13 0.14 0.11 0.08 0.08 0.08 0.09 0.08 0.07 0.06 0.06 0.04 0.04 0.04 0.04 0.04 0.04 0.05 0.06 0.06 0.05 0.04 0.04 0.04 0.03 0.03 0.03 0.04 0.05 0.05 0.06 0.06 0.07 0.07 0.07 0.06 0.05 0.06
0.09 0.12 0.12 0.10 0.09 0.09 0.08 0.06 0.05 0.04 0.04 0.03 0.03 0.02 0.03 0.03 0.03 0.04 0.04 0.04 0.04 0.04 0.04 0.03 0.03 0.04 0.04 0.06 0.06 0.06 0.06 0.06 0.07 0.07 0.06 0.06 0.05 0.06
0.07 0.09 0.09 0.09 0.07 0.06 0.05 0.04 0.04 0.04 0.03 0.03 0.02 0.02 0.02 0.02 0.03 0.03 0.04 0.04 0.04 0.03 0.04 0.04 0.04 0.04 0.05 0.06 0.05 0.06 0.06 0.06 0.07 0.07 0.07 0.06 0.05 0.05
0.05 0.05 0.06 0.06 0.06 0.05 0.04 0.03 0.03 0.03 0.03 0.03 0.03 0.02 0.02 0.02 0.02 0.02 0.03 0.03 0.03 0.03 0.04 0.04 0.05 0.05 0.05 0.05 0.06 0.06 0.07 0.07 0.07 0.07 0.07 0.07 0.06 0.06
0.04 0.03 0.03 0.04 0.04 0.03 0.03 0.03 0.03 0.03 0.03 0.03 0.03 0.03 0.03 0.03 0.03 0.03 0.04 0.04 0.04 0.03 0.04 0.05 0.05 0.06 0.06 0.05 0.05 0.06 0.07 0.06 0.06 0.07 0.08 0.08 0.07 0.07
0.03 0.03 0.03 0.02 0.02 0.02 0.02 0.02 0.02 0.03 0.03 0.03 0.04 0.04 0.04 0.04 0.05 0.05 0.05 0.06 0.05 0.04 0.04 0.05 0.05 0.05 0.04 0.04 0.05 0.05 0.06 0.07 0.07 0.08 0.09 0.09 0.08 0.07
0.02 0.02 0.02 0.02 0.02 0.02 0.02 0.02 0.02 0.02 0.02 0.02 0.03 0.03 0.03 0.03 0.04 0.05 0.05 0.06 0.05 0.05 0.05 0.05 0.04 0.04 0.03 0.03 0.04 0.05 0.07 0.08 0.08 0.08 0.09 0.11 0.11 0.09
0.02 0.02 0.01 0.01 0.02 0.02 0.01 0.01 0.02 0.02 0.02 0.02 0.03 0.02 0.03 0.03 0.04 0.05 0.06 0.07 0.06 0.05 0.04 0.05 0.04 0.03 0.03 0.03 0.04 0.05 0.05 0.07 0.09 0.10 0.10 0.10 0.11 0.10
0.03 0.02 0.02 0.02 0.02 0.02 0.02 0.02 0.02 0.02 0.02 0.02 0.02 0.02 0.02 0.02 0.03 0.03 0.04 0.06 0.06 0.05 0.04 0.04 0.04 0.04 0.05 0.04 0.03 0.04 0.06 0.07 0.10 0.12 0.13 0.13 0.12 0.10
0.05 0.04 0.03 0.03 0.03 0.03 0.02 0.02 0.02 0.01 0.01 0.01 0.02 0.02 0.02 0.02 0.02 0.02 0.03 0.04 0.06 0.05 0.03 0.04 0.04 0.05 0.06 0.06 0.05 0.06 0.07 0.08 0.10 0.12 0.15 0.16 0.14 0.14
0.05 0.04 0.04 0.04 0.04 0.03 0.02 0.02 0.02 0.02 0.01 0.01 0.01 0.01 0.02 0.02 0.02 0.02 0.02 0.03 0.04 0.04 0.03 0.04 0.05 0.05 0.07 0.07 0.06 0.07 0.08 0.08 0.09 0.10 0.11 0.16 0.18 0.16
0.05 0.04 0.05 0.05 0.04 0.03 0.02 0.02 0.01 0.01 0.02 0.02 0.02 0.02 0.02 0.02 0.02 0.02 0.02 0.03 0.04 0.04 0.04 0.04 0.05 0.05 0.06 0.07 0.06 0.07 0.08 0.09 0.09 0.09 0.10 0.12 0.16 0.17
0.04 0.05 0.04 0.04 0.03 0.03 0.02 0.01 0.01 0.01 0.02 0.03 0.03 0.02 0.02 0.02 0.02 0.02 0.03 0.03 0.04 0.04 0.04 0.03 0.03 0.04 0.05 0.05 0.06 0.06 0.07 0.08 0.08 0.08 0.09 0.12 0.13 0.13
0.03 0.03 0.03 0.02 0.02 0.02 0.02 0.02 0.01 0.01 0.02 0.02 0.03 0.03 0.03 0.03 0.03 0.03 0.03 0.04 0.05 0.04 0.04 0.04 0.03 0.03 0.04 0.05 0.05 0.06 0.06 0.07 0.07 0.08 0.11 0.13 0.13 0.13
0.03 0.03 0.03 0.03 0.03 0.02 0.02 0.02 0.02 0.02 0.02 0.03 0.03 0.03 0.03 0.03 0.03 0.03 0.03 0.04 0.05 0.04 0.04 0.04 0.04 0.05 0.06 0.06 0.06 0.05 0.06 0.07 0.07 0.08 0.10 0.12 0.13 0.12
0.03 0.03 0.03 0.03 0.03 0.03 0.02 0.02 0.02 0.02 0.03 0.03 0.03 0.03 0.04 0.04 0.03 0.03 0.03 0.04 0.05 0.05 0.05 0.05 0.06 0.06 0.07 0.06 0.05 0.05 0.05 0.07 0.07 0.09 0.10 0.10 0.10 0.10
0.02 0.03 0.03 0.03 0.02 0.02 0.03 0.02 0.02 0.02 0.02 0.03 0.03 0.03 0.04 0.04 0.04 0.04 0.03 0.03 0.04 0.05 0.05 0.06 0.07 0.08 0.09 0.07 0.06 0.04 0.05 0.06 0.07 0.09 0.10 0.09 0.09 0.10
0.01 0.01 0.02 0.02 0.02 0.02 0.02 0.02 0.02 0.02 0.02 0.03 0.03 0.03 0.04 0.04 0.04 0.04 0.03 0.03 0.03 0.04 0.05 0.05 0.05 0.06 0.07 0.08 0.08 0.07 0.07 0.08 0.08 0.09 0.09 0.11 0.12 0.14
0.01 0.01 0.01 0.01 0.01 0.01 0.02 0.02 0.02 0.03 0.03 0.03 0.03 0.03 0.03 0.04 0.05 0.04 0.04 0.04 0.04 0.04 0.04 0.03 0.03 0.05 0.08 0.10 0.10 0.09 0.08 0.10 0.12 0.13 0.12 0.12 0.12 0.12
0.01 0.01 0.01 0.01 0.01 0.01 0.02 0.02 0.02 0.03 0.03 0.03 0.03 0.04 0.04 0.04 0.04 0.05 0.05 0.05 0.04 0.04 0.04 0.05 0.05 0.06 0.08 0.10 0.11 0.10 0.09 0.10 0.12 0.15 0.16 0.14 0.11 0.10
MSLP
1009.29 1009.66 1010.00 1010.27 1010.46 1010.56 1010.59 1010.57 1010.52 1010.47 1010.44 1010.44 1010.49 1010.58 1010.71 1010.87 1011.04 1011.23 1011.42 1011.62 1011.83 1012.03 1012.23 1012.42 1012.60 1012.78 1012.95 1013.14 1013.34 1013.59 1013.90 1014.28 1014.72 1015.21 1015.73 1016.24 1016.69 1017.04
1008.27 1008.66 1009.02 1009.30 1009.50 1009.61 1009.65 1009.64 1009.60 1009.57 1009.56 1009.58 1009.64 1009.74 1009.86 1010.00 1010.15 1010.31 1010.48 1010.66 1010.86 1011.08 1011.30 1011.53 1011.75 1011.96 1012.17 1012.38 1012.59 1012.84 1013.13 1013.49 1013.92 1014.40 1014.92 1015.45 1015.93 1016.34
1007.38 1007.77 1008.12 1008.40 1008.59 1008.69 1008.73 1008.72 1008.70 1008.68 1008.68 1008.72 1008.78 1008.86 1008.96 1009.06 1009.17 1009.29 1009.42 1009.57 1009.76 1009.98 1010.22 1010.49 1010.76 1011.04 1011.29 1011.55 1011.79 1012.06 1012.36 1012.71 1013.13 1013.60 1014.12 1014.65 1015.16 1015.59
1006.79 1007.16 1007.48 1007.73 1007.89 1007.97 1007.99 1007.97 1007.94 1007.92 1007.92 1007.94 1007.98 1008.02 1008.07 1008.12 1008.16 1008.21 1008.27 1008.38 1008.53 1008.73 1008.99 1009.29 1009.62 1009.95 1010.28 1010.59 1010.89 1011.20 1011.53 1011.90 1012.32 1012.79 1013.31 1013.85 1014.36 1014.82
1006.64 1006.95 1007.22 1007.42 1007.54 1007.58 1007.56 1007.52 1007.46 1007.41 1007.37 1007.35 1007.34 1007.32 1007.29 1007.24 1007.18 1007.13 1007.11 1007.13 1007.22 1007.39 1007.64 1007.95 1008.32 1008.71 1009.10 1009.48 1009.86 1010.22 1010.60 1010.99 1011.43 1011.92 1012.44 1012.99 1013.52 1014.01
1006.97 1007.22 1007.42 1007.56 1007.62 1007.60 1007.53 1007.43 1007.33 1007.22 1007.13 1007.04 1006.95 1006.83 1006.70 1006.53 1006.35 1006.18 1006.03 1005.95 1005.95 1006.05 1006.26 1006.56 1006.94 1007.36 1007.81 1008.25 1008.68 1009.11 1009.53 1009.96 1010.43 1010.93 1011.47 1012.03 1012.59 1013.11
1007.75 1007.92 1008.05 1008.12 1008.10 1008.02 1007.89 1007.73 1007.56 1007.39 1007.22 1007.04 1006.85 1006.63 1006.37 1006.08 1005.76 1005.45 1005.17 1004.96 1004.86 1004.87 1005.00 1005.26 1005.61 1006.03 1006.49 1006.96 1007.43 1007.89 1008.35 1008.82 1009.31 1009.83 1010.38 1010.96 1011.54 1012.09
1008.85 1008.94 1009.00 1008.99 1008.91 1008.76 1008.57 1008.35 1008.11 1007.87 1007.62 1007.36 1007.07 1006.74 1006.37 1005.95 1005.51 1005.07 1004.65 1004.31 1004.08 1003.98 1004.02 1004.19 1004.48 1004.86 1005.29 1005.75 1006.22 1006.68 1007.14 1007.61 1008.10 1008.62 1009.18 1009.76 1010.36 1010.94
1010.09 1010.11 1010.10 1010.02 1009.88 1009.69 1009.44 1009.17 1008.88 1008.57 1008.26 1007.93 1007.56 1007.15 1006.68 1006.17 1005.63 1005.07 1004.55 1004.09 1003.74 1003.52 1003.44 1003.51 1003.70 1003.99 1004.35 1004.75 1005.16 1005.58 1006.00 1006.44 1006.90 1007.39 1007.92 1008.49 1009.09 1009.69
1011.29 1011.25 1011.18 1011.05 1010.87 1010.64 1010.36 1010.06 1009.73 1009.40 1009.04 1008.67 1008.26 1007.80 1007.28 1006.71 1006.10 1005.48 1004.88 1004.33 1003.88 1003.55 1003.35 1003.30 1003.37 1003.54 1003.79 1004.08 1004.40 1004.73 1005.07 1005.42 1005.81 1006.23 1006.71 1007.24 1007.81 1008.40
1012.30 1012.21 1012.10 1011.95 1011.75 1011.51 1011.22 1010.91 1010.58 1010.24 1009.88 1009.49 1009.07 1008.60 1008.07 1007.49 1006.87 1006.21 1005.57 1004.97 1004.45 1004.03 1003.73 1003.56 1003.50 1003.54 1003.65 1003.81 1003.99 1004.20 1004.42 1004.66 1004.93 1005.26 1005.64 1006.09 1006.60 1007.15
1013.07 1012.95 1012.82 1012.66 1012.47 1012.23 1011.96 1011.66 1011.34 1011.01 1010.67 1010.30 1009.90 1009.46 1008.96 1008.40 1007.79 1007.15 1006.51 1005.89 1005.33 1004.85 1004.47 1004.19 1004.01 1003.92 1003.89 1003.90 1003.94 1004.00 1004.08 1004.18 1004.33 1004.52 1004.79 1005.13 1005.54 1006.02
1013.60 1013.48 1013.35 1013.20 1013.02 1012.81 1012.56 1012.29 1012.00 1011.70 1011.38 1011.05 1010.69 1010.28 1009.82 1009.31 1008.75 1008.15 1007.53 1006.92 1006.35 1005.83 1005.39 1005.04 1004.76 1004.55 1004.39 1004.27 1004.17 1004.09 1004.02 1003.99 1003.99 1004.05 1004.18 1004.39 1004.69 1005.06
1013.96 1013.86 1013.75 1013.63 1013.47 1013.29 1013.07 1012.82 1012.56 1012.29 1012.00 1011.70 1011.38 1011.01 1010.60 1010.14 1009.63 1009.07 1008.49 1007.90 1007.33 1006.80 1006.32 1005.90 1005.55 1005.24 1004.98 1004.75 1004.53 1004.33 1004.14 1003.98 1003.85 1003.78 1003.78 1003.86 1004.03 1004.28
1014.26 1014.18 1014.10 1014.00 1013.88 1013.72 1013.52 1013.30 1013.06 1012.81 1012.54 1012.26 1011.95 1011.61 1011.24 1010.81 1010.33 1009.81 1009.26 1008.69 1008.13 1007.58 1007.08 1006.62 1006.20 1005.83 1005.49 1005.18 1004.87 1004.58 1004.30 1004.04 1003.80 1003.63 1003.51 1003.47 1003.52 1003.64
1014.54 1014.50 1014.45 1014.38 1014.28 1014.14 1013.96 1013.75 1013.52 1013.27 1013.00 1012.72 1012.41 1012.08 1011.71 1011.29 1010.83 1010.32 1009.78 1009.21 1008.64 1008.08 1007.55 1007.06 1006.60 1006.18 1005.78 1005.41 1005.05 1004.70 1004.36 1004.03 1003.73 1003.48 1003.27 1003.14 1003.07 1003.08
1014.83 1014.82 1014.80 1014.76 1014.68 1014.55 1014.38 1014.17 1013.93 1013.67 1013.39 1013.09 1012.77 1012.42 1012.04 1011.60 1011.12 1010.60 1010.04 1009.45 1008.86 1008.27 1007.70 1007.17 1006.67 1006.21 1005.78 1005.37 1004.98 1004.60 1004.22 1003.87 1003.53 1003.22 1002.96 1002.76 1002.61 1002.53
1015.07 1015.10 1015.10 1015.08 1015.01 1014.89 1014.72 1014.52 1014.27 1014.00 1013.70 1013.38 1013.04 1012.66 1012.24 1011.77 1011.25 1010.69 1010.08 1009.45 1008.81 1008.17 1007.56 1006.98 1006.44 1005.94 1005.47 1005.04 1004.63 1004.23 1003.85 1003.49 1003.14 1002.81 1002.52 1002.26 1002.05 1001.90
1015.20 1015.25 1015.28 1015.27 1015.21 1015.10 1014.94 1014.74 1014.50 1014.22 1013.92 1013.59 1013.22 1012.81 1012.35 1011.84 1011.27 1010.64 1009.98 1009.28 1008.58 1007.88 1007.20 1006.57 1005.97 1005.43 1004.93 1004.48 1004.06 1003.66 1003.28 1002.91 1002.56 1002.23 1001.91 1001.63 1001.38 1001.17
1015.13 1015.20 1015.24 1015.25 1015.21 1015.12 1014.98 1014.79 1014.57 1014.31 1014.02 1013.68 1013.30 1012.87 1012.38 1011.82 1011.20 1010.52 1009.79 1009.02 1008.24 1007.47 1006.73 1006.03 1005.38 1004.80 1004.26 1003.79 1003.35 1002.95 1002.57 1002.20 1001.85 1001.51 1001.19 1000.88 1000.59 1000.33
1014.84 1014.91 1014.96 1014.98 1014.96 1014.90 1014.79 1014.65 1014.46 1014.24 1013.97 1013.66 1013.28 1012.84 1012.33 1011.74 1011.07 1010.33 1009.54 1008.70 1007.85 1007.01 1006.20 1005.44 1004.74 1004.11 1003.55 1003.05 1002.60 1002.19 1001.81 1001.44 1001.09 1000.74 1000.40 1000.06 999.74 999.43
1014.32 1014.39 1014.45 1014.49 1014.49 1014.47 1014.40 1014.31 1014.17 1014.00 1013.77 1013.49 1013.14 1012.71 1012.18 1011.56 1010.86 1010.07 1009.22 1008.32 1007.41 1006.51 1005.64 1004.84 1004.10 1003.44 1002.85 1002.33 1001.88 1001.46 1001.08 1000.70 1000.34 999.97 999.60 999.23 998.87 998.52
1013.64 1013.72 1013.78 1013.83 1013.87 1013.87 1013.86 1013.81 1013.73 1013.61 1013.43 1013.18 1012.85 1012.42 1011.89 1011.26 1010.52 1009.69 1008.79 1007.84 1006.89 1005.94 1005.04 1004.21 1003.45 1002.77 1002.18 1001.66 1001.21 1000.80 1000.41 1000.03 999.65 999.27 998.87 998.46 998.05 997.65
Thickness
5581 5582 5583 5584 5584 5585 5585 5585 5584 5586 5590 5593 5593 5596 5596 5594 5594 5592 5592 5592 5591 5590 5589 5588 5586 5585 5585 5584 5583 5583 5584 5584 5584 5584 5584 5584 5584 5583
5572 5572 5573 5574 5574 5575 5575 5576 5576 5578 5581 5585 5584 5585 5585 5584 5584 5583 5583 5583 5583 5581 5580 5579 5578 5577 5577 5576 5575 5575 5576 5577 5577 5577 5577 5577 5577 5576
5561 5562 5563 5564 5564 5564 5564 5565 5566 5567 5570 5575 5573 5574 5573 5573 5573 5573 5573 5573 5573 5572 5571 5570 5569 5568 5568 5567 5567 5567 5568 5569 5569 5569 5570 5571 5570 5570
5551 5552 5553 5554 5554 5554 5554 5554 5555 5556 5557 5561 5561 5561 5561 5561 5561 5561 5562 5563 5563 5563 5561 5560 5559 5559 5558 5558 5558 5558 5559 5561 5562 5562 5563 5564 5564 5563
5540 5541 5543 5543 5544 5543 5543 5543 5544 5545 5545 5547 5550 5550 5550 5549 5549 5550 5551 5551 5552 5552 5551 5550 5550 5549 5548 5548 5549 5549 5550 5552 5554 5555 5556 5556 5556 5556
5529 5530 5531 5532 5533 5532 5533 5533 5533 5532 5533 5535 5537 5538 5538 5537 5536 5537 5539 5540 5540 5541 5540 5539 5539 5538 5538 5539 5540 5540 5541 5543 5545 5547 5547 5548 5549 5548
5518 5519 5520 5521 5522 5521 5522 5522 5521 5521 5521 5522 5524 5525 5526 5525 5526 5527 5527 5529 5530 5530 5529 5529 5528 5528 5528 5528 5530 5531 5532 5534 5536 5538 5539 5539 5539 5539
5507 5507 5508 5508 5509 5509 5509 5510 5509 5508 5509 5509 5510 5512 5514 5513 5514 5514 5514 5515 5519 5521 5516 5519 5516 5518 5519 5519 5520 5522 5524 5525 5527 5528 5530 5530 5530 5531
5495 5495 5495 5496 5496 5496 5497 5497 5496 5495 5495 5495 5496 5498 5498 5498 5499 5501 5500 5501 5505 5505 5502 5507 5506 5507 5509 5509 5510 5512 5514 5516 5517 5519 5521 5522 5522 5522
5482 5482 5482 5483 5483 5483 5484 5483 5482 5482 5481 5482 5483 5484 5483 5483 5484 5485 5486 5488 5490 5490 5488 5492 5496 5496 5498 5498 5500 5501 5504 5505 5507 5509 5511 5512 5513 5513
5470 5470 5470 5471 5472 5472 5471 5471 5471 5470 5469 5468 5468 5469 5469 5470 5470 5470 5471 5472 5477 5479 5477 5477 5482 5483 5486 5488 5490 5490 5492 5494 5496 5499 5501 5502 5502 5502
5458 5458 5459 5460 5460 5459 5458 5457 5457 5457 5456 5456 5456 5456 5455 5456 5456 5455 5456 5457 5460 5464 5466 5464 5466 5466 5473 5479 5478 5478 5480 5482 5485 5487 5490 5492 5492 5491
5447 5447 5447 5448 5447 5446 5445 5444 5443 5443 5442 5442 5442 5443 5442 5442 5442 5442 5442 5442 5445 5449 5451 5450 5452 5452 5453 5461 5466 5468 5469 5471 5474 5477 5479 5481 5482 5483
5436 5436 5436 5436 5435 5434 5432 5431 5431 5429 5428 5428 5428 5428 5429 5429 5429 5430 5431 5432 5433 5436 5438 5437 5438 5440 5440 5444 5450 5456 5458 5460 5463 5466 5468 5470 5472 5473
5425 5425 5425 5424 5423 5421 5420 5419 5418 5416 5415 5415 5414 5414 5414 5415 5416 5418 5420 5421 5423 5425 5426 5427 5427 5428 5429 5432 5436 5440 5444 5450 5453 5455 5457 5459 5462 5463
5414 5414 5413 5412 5411 5409 5408 5406 5404 5403 5402 5401 5401 5401 5402 5403 5403 5404 5406 5409 5412 5416 5416 5416 5417 5417 5419 5422 5424 5429 5433 5436 5441 5444 5447 5450 5453 5455
5404 5402 5401 5399 5398 5396 5395 5393 5392 5390 5388 5388 5388 5388 5389 5389 5390 5391 5392 5395 5398 5402 5406 5407 5408 5409 5411 5412 5415 5420 5424 5428 5431 5434 5436 5440 5444 5446
5393 5390 5388 5386 5385 5383 5382 5381 5379 5377 5375 5374 5374 5374 5376 5377 5378 5379 5380 5382 5386 5389 5392 5394 5395 5398 5401 5405 5408 5411 5414 5417 5421 5424 5427 5431 5435 5437
5381 5378 5376 5374 5372 5370 5368 5367 5366 5364 5362 5361 5361 5362 5363 5364 5365 5367 5369 5370 5374 5377 5379 5380 5382 5385 5390 5396 5401 5402 5404 5407 5410 5414 5418 5422 5427 5429
5368 5365 5363 5362 5360 5358 5356 5354 5353 5351 5350 5350 5350 5350 5351 5352 5353 5355 5357 5358 5362 5365 5368 5369 5371 5375 5379 5384 5388 5392 5395 5398 5401 5406 5409 5412 5415 5419
5356 5354 5352 5349 5348 5346 5344 5342 5340 5339 5338 5339 5339 5340 5340 5341 5343 5344 5346 5348 5351 5354 5357 5361 5363 5366 5367 5371 5376 5383 5387 5390 5394 5397 5400 5402 5404 5407
5345 5342 5340 5338 5336 5334 5332 5330 5328 5327 5327 5327 5329 5329 5330 5331 5332 5333 5335 5338 5341 5344 5348 5351 5353 5355 5358 5363 5369 5373 5377 5380 5383 5387 5390 5394 5397 5401
5334 5332 5329 5327 5324 5322 5320 5318 5317 5316 5316 5317 5318 5319 5320 5321 5322 5323 5325 5328 5332 5335 5338 5341 5344 5346 5350 5354 5357 5361 5365 5368 5372 5374 5378 5382 5387 5391